Tracking 31027 objects as of 19-Jul-2025
HD Live streaming from Space Station
objects crossing your sky now

METEOR 1-16 DEB

Track METEOR 1-16 DEB now!
10-day predictions


NORAD ID: 42999
Int'l Code: 1974-011C
Perigee: 746.5 km
Apogee: 794.9 km
Inclination: 81.2 °
Period: 100.1 minutes
Semi major axis: 7141 km
RCS: Unknown
Launch date: March 5, 1974
Source: Commonwealth of Independent States (former USSR) (CIS)
Launch site: PLESETSK MISSILE AND SPACE COMPLEX (PKMTR)

Note: This is SATELLITE DEBRIS
Your satellite tracking list
STARLINK-5403
Track 1 satellite(s)




NASA's NSSDC Master Catalog

Two Line Element Set (TLE):
1 42999U 74011C   25199.62703130  .00006765  00000-0  21963-2 0  9991
2 42999  81.2338 328.1989 0033878 196.2712 163.7390 14.38477339466720
Source of the keplerian elements: AFSPC